Dewpoint
62 62 61 59 56 56 56 57 56 56 55 55 56 56 55 55 55 55 55 57 59 57 57 57 57 56 56 55 55 55 54 54 53 53 52 52 52 52 52 52 53 52 52
61 61 60 58 56 55 55 56 56 56 55 55 55 55 55 55 55 55 57 57 59 60 57 56 56 55 55 54 54 53 53 53 52 52 52 51 51 51 51 51 51 52 52
60 60 59 57 56 55 55 56 56 56 55 55 55 55 55 55 55 55 56 56 56 57 57 56 55 55 54 54 54 53 53 52 52 52 52 52 52 52 52 52 52 52 52
58 58 57 56 55 54 54 55 55 55 55 55 54 55 55 55 54 54 54 55 55 54 54 55 54 54 54 54 54 54 54 54 53 53 53 53 53 53 53 52 53 53 52
57 56 56 55 54 54 54 53 54 54 54 54 54 54 54 54 54 53 54 54 54 54 53 53 54 54 53 52 51 52 53 53 53 53 54 53 53 53 54 54 53 53 53
56 55 55 55 54 53 53 53 52 52 53 53 51 51 52 52 52 53 53 53 53 53 53 52 52 50 51 53 53 51 49 50 51 52 52 53 54 54 54 54 54 54 54
56 55 55 55 54 53 53 52 51 51 51 51 50 50 49 49 48 48 48 50 52 52 52 51 51 50 49 51 53 53 52 51 51 52 52 52 53 54 54 54 54 54 55
55 55 55 55 54 53 52 52 51 50 50 50 49 47 45 42 44 46 46 45 45 46 46 47 48 48 49 48 48 50 51 52 52 52 52 52 53 54 54 55 55 55 55
55 55 56 55 54 53 52 52 51 51 50 49 47 46 42 39 44 45 46 46 45 45 44 44 44 44 44 45 46 46 49 51 52 53 53 53 53 54 54 55 55 55 55
55 54 54 54 54 53 52 52 51 51 50 49 48 46 46 46 43 41 45 45 46 45 46 47 47 46 45 45 46 46 47 48 51 53 54 54 55 55 55 56 56 56 56
55 53 53 52 52 52 53 52 51 50 50 49 49 47 47 47 46 45 43 43 45 46 46 46 47 47 47 47 47 47 47 49 52 54 55 56 56 56 57 56 56 57 57
55 55 53 52 51 51 51 52 51 51 50 49 49 48 47 46 45 45 45 44 44 45 46 47 48 48 49 48 47 47 48 49 51 54 56 57 57 57 57 57 57 56 57
54 54 54 52 51 51 51 50 50 50 49 49 48 48 48 47 46 45 45 44 44 46 47 48 48 49 48 49 49 47 48 50 51 54 56 57 57 58 57 57 57 56 56
55 55 54 54 53 52 51 51 50 50 49 49 49 48 48 48 47 47 46 45 45 46 46 47 49 49 50 50 50 48 48 50 51 52 54 55 56 56 57 57 57 57 57
55 55 55 54 53 53 52 52 52 51 50 50 49 49 48 49 49 49 48 48 47 46 47 49 48 51 50 50 50 49 50 49 50 51 52 53 53 53 54 55 55 55 56
55 55 55 55 55 54 53 53 53 53 52 52 52 51 50 50 51 51 51 50 49 48 48 50 51 51 51 50 52 51 51 48 49 51 51 51 51 52 52 53 53 53 54
55 55 55 55 55 55 55 54 54 54 53 54 54 54 53 53 53 53 52 52 51 51 49 51 52 54 53 53 53 53 52 52 51 50 51 51 51 51 51 52 52 52 53
56 56 56 55 55 55 55 55 55 55 54 54 55 55 54 54 54 54 54 53 53 53 52 51 52 54 54 55 54 53 53 51 51 50 51 51 51 51 51 51 51 51 51
56 56 56 56 56 56 56 56 55 55 55 55 55 55 55 55 55 55 55 54 54 53 53 52 52 54 54 55 54 54 52 52 50 48 49 50 50 50 50 50 50 50 49
57 57 57 56 57 56 56 56 56 56 56 56 57 56 56 56 56 55 55 54 54 53 53 53 52 52 53 53 50 49 48 49 48 49 48 48 48 48 47 47 47 47 46
56 56 55 55 55 54 53 54 55 55 55 54 52 50 48 46 45 46 47 47 47 47 47 47 46 48 47 46 46 44 42 42 43 46 45 45 45 46 45 45 45 45 45
49 50 51 51 49 47 47 48 50 50 49 49 48 47 46 44 44 44 44 44 45 44 43 43 43 43 43 42 41 39 39 39 39 45 42 40 42 43 45 44 45 45 45
46 46 47 47 45 45 46 45 46 46 46 46 45 46 44 42 41 39 40 40 39 40 41 40 39 38 37 39 37 35 35 35 36 38 38 38 40 42 43 41 42 44 44
42 42 42 42 41 43 43 43 44 44 42 41 40 40 40 37 37 36 34 34 34 33 35 34 35 35 35 37 37 35 34 34 35 36 36 35 40 39 39 38 40 40 41
38 37 39 40 40 40 40 39 39 37 37 36 34 33 33 33 34 34 32 32 31 32 33 34 35 35 36 36 36 33 32 31 31 32 36 36 37 35 36 38 37 37 40
35 36 37 39 38 37 37 37 35 33 32 31 29 30 33 32 33 33 31 31 30 30 29 28 30 32 33 34 34 34 34 33 32 32 36 33 33 34 32 38 36 36 37
Lifted_Index
4 4 4 4 5 5 5 5 5 5 5 5 5 4 4 4 4 4 4 4 4 4 3 3 4 4 4 4 4 5 5 6 6 6 7 7 7 7 8 8 8 8 8
4 4 4 4 5 5 5 5 5 5 5 5 5 4 4 4 4 4 4 4 4 3 3 3 3 4 4 4 5 5 6 6 6 6 7 7 7 8 8 8 8 8 8
4 4 4 5 5 5 5 5 5 5 4 4 4 4 4 4 4 4 4 4 4 3 3 4 4 4 4 5 5 5 6 6 6 6 7 7 7 8 8 8 8 8 8
5 5 4 5 5 5 5 5 5 5 4 4 4 4 4 4 4 4 4 4 4 4 4 5 5 5 5 5 6 6 6 6 6 6 6 7 7 8 8 8 8 8 8
6 6 5 5 5 5 5 5 5 5 4 4 4 4 4 4 4 4 4 4 4 4 5 5 6 7 7 7 7 7 6 6 6 6 6 7 7 7 7 8 8 8 8
7 7 6 5 5 5 6 6 5 5 4 4 4 4 4 4 4 4 4 5 5 5 5 6 7 7 8 8 8 8 8 7 7 7 7 7 7 7 7 7 7 8 8
7 6 6 5 5 5 6 5 5 5 4 4 4 4 5 5 5 5 5 5 6 6 6 7 7 8 8 8 8 8 8 8 8 8 8 7 7 7 7 7 7 7 7
5 5 5 4 4 4 5 5 5 4 4 4 4 5 6 7 7 6 6 6 7 7 7 7 7 8 8 8 8 8 8 8 8 8 8 8 8 7 7 7 7 7 7
4 4 3 3 3 3 4 4 4 4 4 4 5 5 6 7 7 7 7 7 7 7 7 7 7 7 7 7 7 7 8 8 8 8 8 8 8 7 7 7 7 7 7
3 3 3 3 3 3 4 4 4 4 4 4 5 5 6 6 6 6 7 7 7 7 6 6 6 6 6 6 6 7 7 8 8 8 8 7 7 7 7 6 6 6 6
3 3 4 4 4 4 4 4 4 4 4 4 5 5 5 6 6 6 6 6 6 5 5 5 5 5 5 5 5 6 6 7 7 7 7 7 6 6 6 6 6 6 5
3 3 3 4 4 4 4 4 4 4 4 4 5 5 5 5 5 6 5 5 5 4 4 4 4 4 4 4 4 4 5 5 6 6 6 6 6 5 5 5 5 5 5
2 2 3 3 3 3 3 4 4 4 4 4 4 5 5 4 4 4 4 4 4 4 4 4 4 4 3 3 3 3 4 4 4 4 5 5 5 5 5 5 4 4 4
2 2 3 3 3 3 3 3 3 4 4 4 4 4 4 3 3 3 4 4 4 4 4 3 3 3 3 3 2 2 2 2 3 3 3 3 4 4 4 3 3 3 3
1 2 2 3 3 2 2 2 2 3 3 3 3 3 3 2 2 3 3 3 3 3 3 3 2 2 2 2 2 2 2 2 2 2 2 2 2 2 2 2 3 2 2
1 2 2 2 2 2 2 2 2 2 2 2 2 2 2 2 2 2 2 2 2 2 2 2 2 1 1 1 1 1 1 2 2 2 2 2 2 2 2 2 2 2 2
1 1 1 2 1 1 1 1 1 1 2 2 2 1 1 1 1 1 1 1 1 1 1 1 1 1 1 1 1 1 2 2 2 2 2 2 2 2 1 1 1 1 1
0 0 0 0 0 0 0 1 1 1 1 1 1 1 1 1 0 0 0 0 0 1 1 1 1 1 1 1 1 1 2 2 2 2 2 2 2 2 2 1 1 2 2
-0 -0 -0 -0 -0 -0 -0 0 -0 -0 -0 -0 0 0 0 0 0 -0 -0 -0 0 0 1 1 1 1 1 2 2 2 2 1 2 2 2 2 2 2 2 2 2 3 3
-1 -1 -1 -1 -1 -0 -0 -0 -0 -0 -0 -0 -0 -0 -0 -0 -0 -0 -0 -0 0 0 1 1 1 1 2 2 2 2 2 2 2 2 2 2 2 2 3 3 3 4 4
-1 -1 -1 -1 -1 -0 -0 -0 -0 -0 -0 -0 -0 -0 -0 -0 0 0 0 0 1 1 1 1 1 1 2 2 2 3 3 3 4 4 4 4 4 5 5 5 5 5 5
-2 -2 -1 -1 -1 -1 -0 -0 -0 -0 0 0 0 0 0 0 1 1 1 1 1 1 2 2 2 2 3 4 4 4 5 6 7 8 8 8 8 8 9 8 8 8 8
-2 -2 -1 -1 -1 -1 -0 -0 -0 -0 0 0 0 1 1 1 1 1 2 2 2 3 4 5 5 5 6 8 8 9 9 9 11 12 12 11 11 12 12 12 11 11 10
-2 -2 -1 -1 -1 -0 0 0 0 0 1 1 1 2 2 2 2 3 3 3 4 6 9 10 10 11 12 13 14 13 13 13 13 14 14 13 13 13 14 14 13 12 11
-2 -2 -1 -0 0 1 2 2 2 2 2 2 3 4 4 4 5 6 6 6 7 10 13 14 15 16 16 17 17 16 15 14 13 14 14 14 14 14 14 14 14 13 12
-1 -1 -1 0 1 2 3 3 3 3 3 3 4 5 6 7 8 9 9 9 9 12 14 16 16 17 17 18 18 17 15 14 13 13 14 15 14 14 14 14 14 14 14